Date,TemperatureHighF,TemperatureAvgF,TemperatureLowF,DewpointHighF,DewpointAvgF,DewpointLowF,HumidityHigh,HumidityAvg,HumidityLow,PressureMaxIn,PressureMinIn,WindSpeedMaxMPH,WindSpeedAvgMPH,GustSpeedMaxMPH,PrecipitationSumIn
2013-3-1,64.0,48.4,35.1,37.6,33.7,29.5,84,60,31,30.40,30.25,10,3,12,0.00
2013-3-2,58.3,46.4,38.3,38.3,34.5,23.7,84,66,28,30.25,30.05,11,3,13,0.00
2013-3-3,47.5,37.0,25.2,34.0,17.0,-0.2,78,50,15,30.16,30.04,11,3,13,0.00
2013-3-4,53.4,34.1,17.2,19.9,13.7,5.5,75,48,19,30.14,29.90,16,3,16,0.00
2013-3-5,42.8,33.9,26.2,29.7,22.5,15.1,88,63,50,29.91,29.64,11,2,11,0.00
2013-3-6,45.5,35.4,30.7,41.4,29.4,21.6,99,80,55,29.89,29.50,14,3,14,0.06
2013-3-7,47.7,35.9,24.1,31.5,23.2,16.0,82,61,36,29.98,29.89,16,4,17,0.00
2013-3-8,49.8,35.2,26.1,35.8,25.0,16.9,88,68,41,30.12,29.93,10,2,25,0.02
2013-3-9,56.7,38.1,20.3,28.2,16.5,6.1,76,49,14,30.37,30.11,8,2,12,0.00
2013-3-10,61.2,42.4,25.9,39.6,24.6,11.5,78,53,15,30.39,30.26,17,5,17,0.00
2013-3-11,57.2,46.6,35.2,42.1,37.9,30.7,92,73,53,30.31,30.17,16,3,16,0.00
2013-3-12,63.3,48.1,35.6,41.2,34.0,24.8,94,63,27,30.19,30.07,9,3,25,0.00
2013-3-13,70.7,51.7,41.0,38.3,33.1,26.6,72,52,24,30.17,30.08,8,2,8,0.00
2013-3-14,68.7,52.8,40.3,36.0,30.1,10.0,76,46,11,30.15,30.01,11,3,13,0.00
2013-3-15,61.7,47.5,35.4,40.5,33.7,28.6,84,61,32,30.17,30.09,17,3,17,0.00
2013-3-16,56.5,40.9,29.3,37.2,30.2,26.4,92,69,35,30.10,29.89,18,4,18,0.04
2013-3-17,43.2,35.4,28.2,28.0,21.2,15.8,80,57,41,30.14,29.98,18,5,24,0.00
2013-3-18,54.7,36.7,20.3,27.5,17.2,5.5,78,52,14,30.14,30.05,11,2,14,0.00
2013-3-19,49.5,37.9,27.7,43.3,26.2,15.4,96,64,39,30.10,29.74,9,2,10,0.04
2013-3-20,52.2,43.9,30.7,42.4,34.9,23.4,91,71,41,30.02,29.60,21,6,25,0.09
2013-3-21,44.6,34.5,27.1,26.4,20.7,13.5,76,58,40,30.13,30.02,20,5,20,0.00
2013-3-22,41.9,32.3,23.0,23.9,17.6,7.9,83,57,25,30.23,30.10,17,4,17,0.00
2013-3-23,45.9,33.9,24.1,23.2,15.8,5.9,72,51,20,30.23,30.12,11,2,11,0.00
2013-3-24,49.5,35.8,22.8,27.1,20.3,12.0,69,54,32,30.17,30.04,13,3,13,0.00
2013-3-25,51.8,42.1,31.3,31.5,27.1,22.6,72,56,40,30.05,29.88,11,3,12,0.00
2013-3-26,52.9,44.4,37.2,38.7,35.2,31.1,86,71,53,29.95,29.89,9,3,11,0.00
2013-3-27,61.3,45.6,31.5,48.0,37.4,29.7,95,76,35,29.96,29.86,12,3,13,0.08
2013-3-28,61.2,47.6,39.6,46.9,42.2,38.8,99,83,49,30.09,29.96,11,2,11,0.06
2013-3-29,64.4,51.2,39.7,47.1,42.6,38.7,99,76,42,30.17,30.09,10,2,10,0.01
2013-3-30,71.2,53.4,34.3,45.3,40.8,32.5,99,67,36,30.19,30.02,14,3,14,0.00
2013-3-31,69.1,53.0,34.2,43.2,38.4,32.0,97,62,32,30.04,29.88,17,4,17,0.00